Preview of NWS' New Version of Forecast
This preview is not operational and should not be used for support decisions.

Regional Weather Roundup (RWR)

Issued by National Weather Service (NWS)

                            
000
ASUS43 KDMX 181601
RWRIA 

WEATHER ROUNDUP FOR IOWA
NATIONAL WEATHER SERVICE DES MOINES IA
1100 AM CDT TUE JUN 18 2019

NOTE: "FAIR" INDICATES FEW OR NO CLOUDS BELOW 12,000 FEET WITH NO
SIGNIFICANT WEATHER AND/OR OBSTRUCTIONS TO VISIBILITY.

* - THESE STATIONS ARE NOT NWS STATIONS...THUS NOT UNDER NWS
QUALITY CONTROL.  THEY ALSO DO NOT REPORT WEATHER SUCH 
AS PRECIPITATION OR FOG.  

IAZ001>003-012>014-020>022-031>034-043>046-181700-
   NORTHWEST IOWA
  
CITY           SKY/WX    TMP DP  RH WIND       PRES   REMARKS
CARROLL *      PTSUNNY   63  61  94 N12       29.99S                  
CHEROKEE *     PTSUNNY   64  60  89 NE5       30.01S                  
DENISON *      PTSUNNY   61  61 100 NE10G18   30.01R                  
LE MARS *      MOSUNNY   66  59  77 NE7       30.00F                  
SHELDON *      SUNNY     70  54  56 N7        29.99S                  
SIOUX CITY     CLOUDY    65  60  84 NE9       30.00F                  
SPENCER        SUNNY     70  54  56 N8        30.00F                  
STORM LAKE *   MOSUNNY   61  59  94 E7        29.98S                  
$$
 
IAZ055>058-069>071-079>083-090>094-181700-
   SOUTHWEST IOWA
  
CITY           SKY/WX    TMP DP  RH WIND       PRES   REMARKS
ATLANTIC *     SUNNY     68  68 100 N5        29.95F                  
AUDUBON *      MOSUNNY   68  64  88 CALM      29.98S                  
CLARINDA *     PTSUNNY   77  68  73 CALM      29.96F                  
COUNCIL BLFS * MOSUNNY   70  70 100 NE5       29.94F                  
CRESTON *      PTSUNNY   75  59  57 VRB3      29.96F                  
HARLAN  *      PTSUNNY   70  66  88 NE3       29.97R                  
LAMONI         MOSUNNY   74  61  63 CALM      29.97S                  
RED OAK *      PTSUNNY   73  68  83 CALM      29.95F                  
SHENANDOAH *   PTSUNNY   75  70  83 NE5       29.93F                  
$$
 
IAZ047>049-059>061-072>074-084-181700-
   CENTRAL IOWA
  
CITY           SKY/WX    TMP DP  RH WIND       PRES   REMARKS
AMES           CLOUDY    70  65  84 NE7       29.97S                  
ANKENY *       PTSUNNY   72  64  78 NE6       29.97S                  
BOONE *        PTSUNNY   66  66 100 NE10      29.97S                  
CHARITON *     SUNNY     73  64  73 CALM      29.96S                  
DES MOINES     CLOUDY    72  63  73 CALM      29.96S                  
GRINNELL*      PTSUNNY   72  62  70 NW3       29.98S                  
KNOXVILLE *    MOSUNNY   72  61  68 CALM      29.97R                  
MARSHALLTOWN   CLOUDY    67  65  93 N9        29.96F                  
NEWTON *       MOSUNNY   72  64  78 CALM      29.97S                  
PELLA *        SUNNY     74  61  63 CALM      29.98S                  
PERRY *        CLOUDY    70  68  95 CALM      29.97S                  
$$
 
IAZ004>006-015-016-023>025-035-036-181700-
   NORTH CENTRAL IOWA
  
CITY           SKY/WX    TMP DP  RH WIND       PRES   REMARKS
ALGONA *       PTSUNNY   66  63  88 NE5       29.99S                  
CLARION *      PTSUNNY   63  61  94 NE8       29.99F                  
ESTHERVILLE    SUNNY     67  54  63 N8        29.99F                  
FORT DODGE *   CLOUDY    62  60  93 NE3       30.00S                  
MASON CITY     LGT RAIN  65  60  84 N6        30.00F                  
FOREST CITY *  FAIR      64  59  82 CALM      29.99S                  
IOWA FALLS *   CLOUDY    65  64  97 N6        30.00S                  
$$

IAZ007>011-017>019-026>030-037>042-050>054-066-181700-
   NORTHEAST IOWA
  
CITY           SKY/WX    TMP DP  RH WIND       PRES   REMARKS
CEDAR RAPIDS   PTSUNNY   70  63  78 CALM      29.97S                  
CHARLES CITY * PTSUNNY   64  61  88 N6        29.98F                  
CLINTON *      CLOUDY    81  64  56 CALM      29.97F HX  82           
DECORAH *      LGT RAIN  63  63 100 CALM      29.97S                  
DUBUQUE        PTSUNNY   71  62  73 W8        29.98R                  
MONTICELLO *   PTSUNNY   72  64  78 CALM      29.97S                  
OELWEIN *      CLOUDY    66  66 100 W12       29.99R FOG              
WATERLOO       LGT RAIN  67  65  93 SW3       29.97S FOG              
$$
 
IAZ064-065-067-068-078-181700-
   EAST CENTRAL IOWA
  
CITY           SKY/WX    TMP DP  RH WIND       PRES   REMARKS
DAVENPORT      PTSUNNY   73  61  65 VRB3      29.98F                  
IOWA CITY      PTSUNNY   70  62  76 W3        29.98S                  
MT. PLEASANT * PTSUNNY   77  64  65 CALM      29.97S                  
MUSCATINE *    FAIR      72  63  73 CALM      29.97S                  
QUAD CITIES    PTSUNNY   73  60  63 CALM      29.96S                  
$$
 
IAZ062-063-075>077-085>089-095>099-181700-
   SOUTHEAST IOWA
  
CITY           SKY/WX    TMP DP  RH WIND       PRES   REMARKS
BURLINGTON     CLOUDY   N/A N/A N/A NW5       29.97R                  
FAIRFIELD *    CLOUDY    72  63  73 W5        29.97R                  
FORT MADISON * PTSUNNY   72  64  78 W3        29.98S                  
KEOKUK *       CLOUDY    72  63  73 CALM      29.96S                  
OSKALOOSA *    FAIR      73  61  66 CALM      29.98S                  
OTTUMWA        PTSUNNY   73  62  68 CALM      29.97S                  
WASHINGTON *   PTSUNNY   72  72 100 CALM      29.98S                  
$$

ABBREVIATIONS USED IN REMARKS
   TC - TEMPERATURES IN CELSIUS
  WCI - WIND CHILL INDEX
   HX - HEAT INDEX
  VSB - VISIBILITY  
$$